Regional Weather Roundup
Issued by NWS Bismarck, ND

Home | Current Version | Previous Version | Text Only | Print | Product List | Glossary Off
Versions: 1 2 3 4 5 6 7 8 9 10 11 12 13 14 15 16 17 18 19 20 21 22 23 24 25 26 27 28 29 30 31 32 33 34 35 36 37 38 39 40 41 42 43 44 45 46 47 48 49 50

000
ASUS43 KBIS 020310
RWRBIS

NWR BROADCAST TEXT
NATIONAL WEATHER SERVICE BISMARCK ND
1000 PM CDT TUE SEP 01 2015

NOTE: "FAIR" INDICATES FEW OR NO CLOUDS BELOW 12,000 FEET WITH NO
SIGNIFICANT WEATHER AND/OR OBSTRUCTIONS TO VISIBILITY.


CITY           SKY/WX    TMP DP  RH WIND       PRES   REMARKS
WILLISTON      CLEAR     77  36  22 NE6       29.78R
MINOT          CLEAR     72  57  59 SE7       29.77R
MINOT AFB      NOT AVBL
BISMARCK       PTCLDY    75  66  73 SE7       29.79R
DICKINSON      CLEAR     71  56  58 SE9       29.80R
GARRISON         N/A     71  63  75 SE5       29.79S
HETTINGER ARPT CLEAR     65  55  70 CALM      29.84R
JAMESTOWN      CLEAR     72  67  84 SE9       29.83R
CROSBY         FAIR      63  45  51 NW6       29.80R
HARVEY         FAIR      73  64  73 SE8       29.81S
HAZEN          FAIR      68  61  77 SE6       29.80R
LINTON         FAIR      75  70  83 SE12      29.81R
OAKES            N/A     68  68 100 SE9       29.84S
RUGBY          FAIR      73  59  60 SE13      29.80S
STANLEY        FAIR      68  63  83 CALM      29.80R
$$

CITY           SKY/WX    TMP DP  RH WIND       PRES   REMARKS
GRAND FORKS    PTCLDY    72  56  57 SE9       29.83R
GRAND FORKS AF CLEAR     69  56  62 SE8       29.83S
DEVILS LAKE    CLEAR     72  57  60 SE6       29.82S
FARGO          CLEAR     76  66  71 SE8       29.84R
CAVALIER       FAIR      66  55  68 S3        29.83R
GRAFTON        FAIR      66  57  72 S8        29.83S
GWINNER          N/A     73  73 100 SE8       29.86R
LANGDON        FAIR      66  54  63 S9        29.86R
ROLLA          FAIR      66  55  68 S10       29.84S
WALHALLA       FAIR      68  59  73 MISG      29.83R
$$

CITY           SKY/WX    TMP DP  RH WIND       PRES   REMARKS
ABERDEEN       CLEAR     69  64  84 SE6       29.83S
MOBRIDGE       CLEAR     73  64  73 SE9       29.78R
BUFFALO          N/A     76  54  46 E10       29.79R
RAPID CITY     CLEAR     62  56  80 CALM      29.87R
GLASGOW        CLEAR     68  41  37 NE10      29.76R
SIDNEY         CLEAR     70  41  35 N7        29.77R
WOLF POINT     CLEAR     64  44  48 E6        29.76R
GLENDIVE       CLEAR     68  37  32 N8        29.80R
MILES CITY     CLEAR     77  35  21 NE6       29.77R
BAKER          CLEAR     66  47  50 SE3       29.83R
$$

CITY           SKY/WX    TMP DP  RH WIND       PRES   REMARKS
BILLINGS       PTCLDY    81  29  15 E12       29.80R
GREAT FALLS    CLEAR     68  29  23 NW6       29.77R
REGINA         PTCLDY    66  48  52 E6        29.76R
ESTEVAN        PTCLDY    64  52  63 NW6       29.78R
$$



USA.gov is the U.S. government's official web portal to all federal, state and local government web resources and services.